星链-1233 (STARLINK-1233 )

导读

STARLINK-1233是美国SpaceX星链计划中的卫星,于2020年2月17日发射。星链旨在构建全球卫星互联网星座,该卫星作为早期组网成员,承担低轨通信传输任务,为全球偏远地区等提供互联网接入服务,推动全球网络覆盖建设,是SpaceX星链星座部署中的一环。

基本信息
目录编号:
45214
目录名称:
STARLINK-1233
国际标识:
2020-012AN
轨道中心:
EARTH
卫星名称:
星链-1233
卫星全名:
星链-1233 (STARLINK-1233 )
卫星状态:
已陨落 最后检测时间 2024-09-07
发射日期:
2020-02-17 UTC
国别 :
美国 (US)
星等 :
--
该卫星已列入 空间交会检测服务 Space Conjunction Data Service (SCDS) ,当前飞行风险评估等级: 无高风险
轨道信息
数据来源 国际轨道数据
星历时间: 2024-09-08T04:35:37+0800
轨道信息已过期734天
半长轴: 6584.503km
偏心率: 0.0000964
轨道倾角: 53.042°
近地点辐角 42.313°
升交点赤经 250.774°
平近点角 47.891°
近地点: 205.733km
远地点: 207.003km
周期: 88.623分钟
每日圈数: 16.248688
详细信息
固有亮度:
5
最大亮度:
2.5
卫星平台:
Starlink V1.0
覆盖范围:
全球
运营商:
太空探索技术公司
运营商所在国:
美国
制造商(研发单位):
太空探索技术公司
制造商所在国:
美国
使用方式:
暂无
卫星简介
星链(Starlink)计划是由太空探索技术公司(SpaceX)提出的一个巨型低轨卫星互联网星座项目,计划在2019年至2024年间在太空搭建由约1.2万颗卫星组成的“星链”网络,其中1584颗将部署在地球上空550千米处的近地轨道,并从2020年开始工作。该卫星仍在工作。
与全量物体交会距离演化趋势
与全量物体交会风险概率演化趋势